Regional Weather Roundup
Issued by NWS Cleveland, OH

Home | Current Version | Previous Version | Text Only | Print | Product List | Glossary Off
Versions: 1 2 3 4 5 6 7 8 9 10 11 12 13 14 15 16 17 18 19 20 21 22 23 24 25 26 27 28 29 30 31 32 33 34 35 36 37 38 39 40 41 42 43 44 45 46 47 48 49 50

000
ASUS41 KCLE 270500
RWRCLE
OHIO REGIONAL WEATHER ROUNDUP
NATIONAL WEATHER SERVICE WILMINGTON, OH
100 AM EDT FRI MAR 27 2015

NOTE: "FAIR" INDICATES FEW OR NO CLOUDS BELOW 12,000 FEET WITH NO
SIGNIFICANT WEATHER AND/OR OBSTRUCTIONS TO VISIBILITY.

OHZ001>008-015>018-024>027-034-035-043-044-270600-
   NORTHWEST OHIO

CITY           SKY/WX    TMP DP  RH WIND       PRES   REMARKS
DEFIANCE       CLOUDY    35  23  61 NW13G21   29.99R WCI  26
FINDLAY        CLOUDY    35  23  61 NW7       29.95R WCI  29
TOLEDO EXPRESS CLOUDY    34  21  59 W8        29.96R WCI  27
TOLEDO EXEC    CLOUDY    35  23  61 NW9       29.96R WCI  28
LIMA           MOCLDY    33  24  69 NW7       29.96S WCI  27
$$

OHZ009>014-019>023-028>033-038-089-270600-
   NORTHEAST OHIO

CITY           SKY/WX    TMP DP  RH WIND       PRES   REMARKS
CLE-HOPKINS    CLOUDY    36  27  69 NW9       29.93S
CLE-LAKEFRONT  CLOUDY    34  30  85 W10       29.90S WCI  26
CUY CO. ARPT   NOT AVBL
LORAIN-ELYRIA  CLOUDY    35  27  72 NW13      29.92S WCI  26
ASHTABULA      CLOUDY    34  32  92 W3        29.87S FOG
AKRON-CANTON   CLOUDY    37  33  85 W5        29.88S FOG
WOOSTER        NOT AVBL
MANSFIELD      PTCLDY    33  25  72 NW9       29.91S WCI  25
YOUNGSTOWN     CLOUDY    34  33  96 W3        29.86S FOG
$$

OHZ042-051>053-060>062-070>072-077>081-270600-
  SOUTHWEST OHIO

CITY           SKY/WX    TMP DP  RH WIND       PRES   REMARKS
CINC-COVINGTON MOCLDY    36  31  82 CALM      29.98S
CINC-LUNKEN    CLOUDY    40  33  76 N7        30.00R
HAMILTON       CLOUDY    39  27  62 N9        30.00S
DAYTON         NOT AVBL
WRIGHT-PAT AFB CLOUDY    36  25  64 N9        29.97S
DAYTON GENERAL CLOUDY    37  25  61 N12       29.97S
WILMINGTON     CLOUDY    37  28  70 N12       29.96R
$$

OHZ036-037-039>041-045>050-054>059-063>069-073>076-082>088-270600-
  CENTRAL AND SOUTHEAST OHIO

CITY           SKY/WX    TMP DP  RH WIND       PRES   REMARKS
COLUMBUS       CLOUDY    36  27  69 NW12      29.95R
OSU AIRPORT    PTCLDY    34  26  72 NW7       29.95R WCI  28
BOLTON FIELD   NOT AVBL
RICKENBACK AFB NOT AVBL
NEWARK         CLOUDY    38  29  70 NW14      29.92R
MARION         CLEAR     32  23  69 NW7       29.94F WCI  26
LANCASTER      CLOUDY    39  31  72 NW13      29.94R
ZANESVILLE     CLOUDY    37  32  82 W7        29.91F
NEW PHILLY     CLOUDY    38  34  85 CALM      29.90S FOG
$$



USA.gov is the U.S. government's official web portal to all federal, state and local government web resources and services.